Theta_e
350 349 351 348 355 355 358 354 352 353 352 351 350 350 349 348 347 348 345 345 343 344 344 343 342 341 334 332 330 331 333 332 330 332 330 331 334 334 334 334 334 334 333 334 333 334 335 339 339
352 351 347 347 358 358 356 351 352 352 349 347 347 347 347 347 346 345 345 343 343 343 343 342 342 340 333 330 330 332 332 331 331 331 330 329 333 333 333 333 334 334 333 333 332 333 333 335 339
352 350 344 352 355 356 356 351 352 349 348 347 346 346 346 346 346 346 343 343 343 343 342 340 337 338 333 329 329 331 332 331 330 330 330 330 333 332 333 333 336 335 335 338 334 333 336 336 339
352 348 351 357 358 353 352 351 350 350 349 347 347 348 348 348 346 345 344 343 342 341 341 336 333 334 331 329 330 331 332 331 329 329 331 332 333 331 332 335 337 336 338 339 338 337 337 339 341
353 345 356 359 356 350 349 350 349 350 350 348 347 349 348 345 344 345 344 341 341 340 336 335 333 331 331 330 331 332 332 330 329 330 333 333 331 332 334 337 340 338 340 337 338 338 340 340 342
354 347 356 358 354 350 349 350 350 350 350 349 349 348 348 347 347 347 343 341 340 338 337 337 336 334 332 332 332 332 332 329 330 332 333 332 340 337 340 341 340 340 339 338 339 340 341 340 341
349 345 354 354 354 352 350 351 350 350 350 350 347 348 348 348 348 347 345 342 339 338 339 340 340 338 337 337 336 335 329 330 331 333 332 335 346 345 342 340 340 340 339 338 338 341 339 339 342
345 344 350 351 350 351 348 350 349 349 350 349 346 349 349 347 347 346 346 344 339 339 340 341 340 341 339 338 335 330 330 330 331 332 334 344 347 347 345 341 341 344 341 339 339 344 345 345 344
340 349 351 348 347 348 348 349 349 349 349 346 350 347 346 347 348 349 349 348 342 341 342 340 337 338 335 332 330 330 330 330 331 332 342 346 346 347 344 346 346 346 346 343 345 346 340 345 344
343 345 347 343 343 342 346 348 349 350 350 350 349 348 348 348 350 349 349 348 345 344 344 340 337 333 333 331 330 329 329 330 331 334 342 348 347 347 344 346 347 342 344 345 345 344 347 345 345
344 345 343 343 341 344 348 349 348 350 350 350 350 350 348 350 351 350 349 349 348 342 341 340 336 332 331 330 330 330 331 331 333 334 341 346 347 346 345 345 345 345 346 346 344 344 343 345 344
346 343 342 342 341 341 345 349 349 348 348 346 347 346 347 350 351 350 351 351 349 343 338 337 335 332 331 332 337 333 334 342 343 347 344 340 344 346 347 347 347 346 348 346 345 346 344 344 346
343 343 342 342 342 341 342 345 348 348 348 349 349 348 345 347 349 350 349 350 348 345 343 342 337 334 332 343 342 341 344 344 345 346 346 341 346 347 348 346 345 346 346 347 346 345 345 343 346
342 341 341 342 341 341 340 341 344 348 348 349 350 349 348 346 348 349 350 349 347 343 341 346 342 341 339 343 347 346 348 346 347 348 349 344 346 344 346 346 344 347 348 346 344 345 344 343 342
341 337 341 342 340 340 339 345 349 349 348 349 350 350 349 348 349 349 348 349 345 343 346 348 343 344 346 349 345 347 349 349 348 349 348 348 347 346 343 342 345 347 348 346 346 346 345 341 341
325 334 341 340 340 338 336 346 348 348 346 347 349 349 348 347 346 345 346 344 346 348 348 348 345 346 345 350 349 347 349 349 348 348 347 347 348 349 346 347 343 343 344 345 346 345 343 342 341
321 323 326 327 335 340 340 341 347 347 347 346 345 346 346 346 347 347 350 347 349 347 346 348 350 349 348 346 347 346 346 349 347 347 347 348 349 349 347 343 345 344 344 344 345 345 345 342 331
322 325 326 331 341 341 340 341 344 347 347 347 347 346 346 345 346 346 348 348 349 347 348 348 350 351 350 348 345 348 346 346 346 346 348 348 348 347 348 343 344 344 346 344 344 345 345 335 328
322 323 324 328 336 341 340 340 343 345 347 347 347 347 347 346 345 345 346 347 349 347 346 346 349 349 349 349 348 343 344 343 345 348 349 351 349 348 349 348 345 342 344 344 341 342 338 329 333
322 323 324 339 342 342 342 341 339 338 345 346 346 346 346 346 346 346 345 346 347 347 348 348 347 349 350 349 350 350 347 340 343 347 346 348 348 348 346 342 342 345 344 345 343 342 331 327 335
322 322 324 328 341 341 343 344 341 338 338 340 345 345 344 345 345 345 345 345 346 347 348 348 348 348 349 350 351 351 350 343 344 346 346 345 346 346 347 345 342 344 344 343 343 340 337 332 334
322 324 325 328 336 341 339 344 343 341 338 337 340 343 343 344 344 344 345 346 346 346 347 347 348 348 349 349 350 352 351 344 346 347 347 348 349 348 349 346 344 343 342 345 343 341 322 328 334
323 324 325 328 338 339 341 341 340 343 343 338 339 340 342 343 343 343 344 345 345 345 346 346 347 348 348 348 349 350 351 346 346 348 350 350 350 350 350 346 342 339 341 344 342 338 330 323 332
324 322 323 325 330 339 338 343 343 344 343 341 340 340 341 342 342 343 343 344 345 345 345 346 347 348 348 349 350 349 348 348 347 350 350 348 345 348 350 345 345 341 341 343 338 337 333 324 330
322 319 321 323 324 328 335 343 342 341 343 342 342 342 341 341 342 342 343 344 345 345 346 346 347 348 348 349 349 349 347 345 347 352 350 347 345 347 349 345 344 337 342 335 335 331 326 318 321
319 320 320 321 325 326 328 342 341 338 340 343 344 344 343 340 341 342 343 343 344 345 346 347 347 348 348 348 349 349 346 342 345 348 349 347 349 348 347 348 343 336 338 331 330 325 320 319 319
321 319 319 319 324 326 328 333 334 337 337 341 344 345 343 341 340 341 341 342 343 345 345 346 347 347 347 347 349 350 347 340 345 346 346 349 350 349 350 345 340 335 332 328 324 322 320 320 320
323 318 320 315 320 322 324 330 332 336 339 339 343 344 343 341 341 340 341 341 343 343 344 345 346 347 347 347 348 350 350 341 340 345 348 351 352 352 351 349 346 343 339 329 323 321 321 324 322
322 320 318 318 319 323 323 325 326 329 336 339 342 345 343 341 342 342 341 341 343 344 346 345 346 347 348 348 349 350 351 348 341 341 348 350 350 350 351 351 349 347 344 342 339 324 322 328 323
325 323 319 322 319 320 324 326 328 327 334 338 339 342 342 341 342 344 343 345 342 343 345 346 346 347 347 348 349 350 351 351 347 341 340 344 348 349 350 352 350 348 346 343 342 339 322 329 325
Wind_Speed
10 10 6 2 1 1 3 2 4 3 2 5 9 10 11 15 3 5 24 24 30 29 29 29 28 29 32 30 27 25 23 21 20 20 18 17 16 16 15 13 13 12 11 11 12 12 12 12 12
10 10 5 1 2 1 2 4 3 4 15 26 20 14 13 6 12 26 26 29 30 30 29 28 27 29 30 29 25 23 20 20 19 18 16 15 15 14 13 12 12 12 12 12 11 11 11 12 12
11 5 1 1 1 3 2 6 11 16 19 8 8 17 7 6 22 29 31 32 30 29 29 27 26 27 28 27 24 21 19 18 17 16 15 14 14 13 12 11 11 12 12 12 11 11 12 12 12
7 2 2 2 5 5 3 14 20 16 11 13 21 11 10 9 18 25 32 32 30 28 28 27 26 26 26 25 22 19 17 16 15 13 13 13 13 12 11 11 12 12 13 14 13 13 14 13 12
11 2 3 4 4 2 8 19 24 13 10 21 16 11 11 16 27 32 33 31 30 29 28 26 25 25 25 23 21 19 17 15 13 12 12 13 12 11 12 13 13 13 14 15 16 16 15 15 14
4 7 4 4 4 7 7 26 21 19 22 26 21 17 9 28 29 29 29 29 28 30 27 25 24 23 23 22 20 18 16 14 13 13 13 13 14 14 14 14 14 13 12 14 14 14 14 14 13
8 1 4 9 12 13 19 29 21 22 19 8 22 9 19 29 27 25 23 24 27 26 26 24 23 22 22 21 20 18 16 14 13 12 13 13 15 15 14 15 13 12 10 11 11 13 15 13 10
10 4 4 7 10 10 21 17 26 33 9 24 29 8 19 32 29 28 24 23 25 25 22 23 23 23 22 21 19 18 15 14 13 12 12 12 11 12 12 12 13 13 11 10 9 10 12 12 10
14 4 3 7 3 11 30 16 23 17 30 16 5 30 37 36 34 32 28 24 24 22 22 23 24 22 22 20 19 17 15 13 12 12 11 10 9 7 6 10 10 9 8 9 9 7 8 9 7
6 3 6 10 5 8 27 34 25 17 26 10 26 32 35 38 36 34 31 29 26 26 25 24 23 22 21 20 18 16 14 11 12 13 9 8 6 3 2 5 7 8 7 6 5 3 7 9 7
6 6 5 13 4 12 25 31 26 33 15 36 37 38 39 40 37 36 34 30 25 23 25 25 24 23 22 19 16 14 12 11 11 10 8 5 7 3 7 9 6 6 6 7 3 4 4 7 6
5 10 13 14 28 6 14 28 24 35 21 45 44 46 44 40 39 40 35 32 26 24 24 24 24 24 22 17 13 13 14 13 12 10 6 7 5 3 3 3 4 5 3 3 5 2 2 3 5
7 7 22 22 20 13 17 24 25 21 37 37 43 46 45 43 40 35 31 33 28 25 24 21 23 23 23 20 14 16 13 13 9 9 7 7 5 2 4 2 3 0 3 1 2 2 1 3 4
13 13 20 31 24 17 15 18 17 29 39 39 47 47 44 45 39 38 39 34 29 24 25 23 24 22 24 19 14 16 12 10 10 9 8 6 5 3 4 3 3 2 3 2 4 2 4 2 1
22 7 15 16 27 9 18 6 16 41 45 43 45 42 39 43 43 42 38 35 30 27 27 24 27 24 20 19 17 16 14 13 14 12 7 10 8 5 3 7 6 6 2 3 4 1 3 5 4
3 2 4 14 17 8 9 11 21 43 43 40 42 39 37 41 43 41 38 36 35 30 32 29 29 27 24 23 23 21 17 12 11 10 8 12 9 5 6 6 8 8 5 4 4 5 5 5 5
2 4 7 5 13 6 4 5 24 41 38 37 37 39 36 36 41 42 40 37 35 32 30 31 32 30 28 27 25 23 24 19 16 12 12 10 12 9 7 6 3 4 6 6 6 5 4 5 3
6 3 2 4 17 29 11 5 22 35 36 37 38 38 38 37 38 37 40 39 36 35 31 27 34 34 30 24 28 28 24 23 21 20 14 12 13 12 10 7 7 8 7 5 5 5 4 7 3
5 7 7 4 7 18 17 14 23 32 30 31 34 37 38 44 41 36 35 38 40 36 34 30 33 34 29 27 23 23 31 28 26 19 15 15 15 16 11 11 9 9 9 6 7 5 6 6 3
12 15 13 5 3 2 11 16 19 16 30 38 36 35 38 40 43 44 42 40 43 41 37 32 33 33 31 29 26 22 17 23 25 19 20 18 16 11 9 7 8 15 10 11 10 7 5 7 5
13 17 8 6 3 4 7 2 6 6 6 23 31 40 40 45 46 47 49 48 45 45 42 38 36 37 35 31 26 24 18 17 23 22 24 20 18 13 12 11 9 12 12 12 10 7 7 6 6
14 15 9 7 5 9 8 5 8 15 12 14 29 35 39 44 50 50 52 53 50 48 44 41 39 39 38 33 30 30 27 23 25 20 21 19 15 17 15 12 13 11 14 13 11 7 4 9 9
14 10 9 9 6 3 3 3 6 10 19 13 22 36 43 46 51 52 54 56 55 50 47 45 43 41 39 35 34 33 31 25 23 22 15 18 18 20 19 13 13 16 16 14 12 8 5 7 9
11 8 6 4 4 10 13 13 6 9 10 20 22 37 41 42 45 52 56 54 56 54 51 49 47 44 41 37 35 35 34 28 31 24 20 21 18 22 21 14 14 16 16 15 12 9 8 9 13
11 6 5 5 6 10 11 11 12 19 13 21 25 36 37 46 46 50 50 54 55 57 56 53 50 48 45 41 37 34 33 30 33 27 26 22 22 24 22 17 19 17 16 17 15 10 10 10 13
10 16 9 8 4 5 6 9 10 12 20 38 44 46 41 47 50 53 57 59 60 59 58 57 54 51 48 44 40 34 33 33 31 29 31 28 25 21 17 19 21 19 16 15 15 13 12 12 14
10 11 11 7 3 2 4 7 8 12 8 19 36 36 40 48 50 55 60 61 61 62 61 60 58 54 51 47 43 38 34 37 34 30 31 30 24 21 20 18 18 19 18 17 16 16 13 13 12
19 7 5 1 12 15 5 7 6 8 14 17 24 33 43 47 51 51 54 60 60 60 62 60 59 57 53 49 46 42 36 38 36 35 36 33 26 25 25 22 20 18 18 17 17 17 16 13 13
8 11 3 6 9 13 8 15 8 10 12 14 21 44 45 43 50 51 49 55 60 57 58 60 60 59 57 52 48 45 41 37 39 39 38 39 36 32 30 28 25 24 23 21 20 19 19 16 16
21 16 13 11 8 5 16 19 3 10 10 15 24 37 42 38 45 45 58 54 51 53 55 60 59 59 58 55 49 47 44 41 39 42 42 41 42 40 36 33 33 30 27 27 24 23 24 21 18
Wind_Direction
136 151 155 87 63 208 256 209 137 107 61 24 90 112 94 43 70 146 143 144 146 141 143 142 143 145 146 146 141 136 130 125 118 113 111 109 106 102 98 95 83 76 72 73 72 75 79 83 92
155 142 99 55 265 159 222 169 158 115 117 100 85 83 54 71 101 133 139 145 146 143 145 143 144 146 149 152 146 138 133 126 119 112 110 107 102 98 94 85 75 70 68 65 65 69 72 79 86
158 181 48 152 234 228 133 148 134 128 141 109 107 78 72 92 124 137 144 146 148 145 148 144 147 149 152 154 149 143 138 129 120 116 112 104 98 94 88 78 64 62 65 61 64 67 72 78 93
171 257 96 229 221 260 169 138 138 147 137 83 104 75 75 117 137 147 147 149 149 148 148 148 149 151 152 153 153 149 143 135 127 117 110 103 95 86 83 73 61 58 58 63 67 69 72 79 93
161 334 310 269 230 259 129 140 135 129 84 104 107 93 92 134 135 140 144 150 151 150 150 150 152 154 154 156 155 153 149 138 130 124 109 96 86 79 76 63 60 62 64 71 80 86 89 90 99
88 8 288 330 322 125 156 138 128 112 113 109 101 100 104 136 136 139 145 150 154 152 154 154 155 157 159 161 160 159 151 142 139 124 107 98 82 82 73 70 65 65 73 84 89 93 95 92 93
94 238 252 288 262 133 142 144 133 131 138 132 128 106 140 150 148 153 151 153 158 159 159 161 163 165 166 166 164 161 155 149 142 122 110 105 87 82 77 72 72 71 79 92 97 94 97 99 94
131 191 276 238 173 160 150 128 143 139 138 133 122 156 164 159 156 158 156 158 165 165 165 166 166 167 168 168 166 163 159 156 141 126 119 105 98 86 82 83 82 78 79 96 111 100 91 92 83
156 158 291 324 140 134 146 134 148 135 139 155 217 156 153 156 158 160 166 167 172 176 176 174 173 170 169 167 168 167 165 156 142 136 133 125 106 101 100 99 99 81 81 83 92 97 79 78 57
194 139 228 208 243 174 152 149 144 138 155 139 121 146 154 161 167 168 177 173 171 178 182 181 178 174 171 171 171 169 163 154 151 149 150 132 145 135 105 99 89 102 100 96 80 114 92 80 76
217 180 215 295 246 135 143 147 150 148 175 154 152 159 162 165 173 175 179 177 173 175 181 184 181 178 174 169 169 170 167 162 158 157 177 136 142 160 85 85 92 97 84 84 48 96 72 70 69
185 229 229 256 264 156 158 147 162 163 180 164 158 156 161 172 179 182 186 188 182 178 179 184 183 184 177 167 162 161 169 150 149 142 122 171 177 168 102 84 94 82 68 82 78 122 34 46 50
231 162 202 219 211 142 194 183 172 189 158 163 161 160 164 173 180 186 188 185 185 181 177 178 182 187 178 167 157 167 160 169 151 156 149 152 158 231 231 249 133 314 297 328 11 118 98 358 55
221 222 220 225 244 167 188 194 142 160 159 158 165 169 171 177 183 184 183 187 189 190 185 179 180 178 176 176 179 180 189 199 211 198 178 170 174 234 240 216 213 210 248 291 7 26 139 119 5
237 271 269 246 213 205 174 109 148 157 158 163 171 174 179 184 187 186 193 196 197 195 193 188 184 180 188 190 190 198 200 210 204 183 177 202 224 258 262 250 223 227 268 339 359 272 236 189 234
181 152 236 271 153 165 132 176 159 162 163 164 174 179 182 191 195 195 196 200 197 197 198 196 193 194 198 195 203 203 203 188 199 204 207 219 227 242 255 269 237 242 240 298 306 269 253 237 260
8 206 207 283 196 126 185 196 169 167 167 170 175 180 181 190 202 201 199 199 194 196 196 200 202 204 207 208 214 211 214 205 205 209 224 228 232 249 258 250 194 203 245 251 283 288 305 275 294
224 237 235 169 152 179 187 175 169 173 172 173 179 182 186 191 196 205 207 202 195 193 199 206 213 213 212 215 221 221 219 216 218 219 227 227 241 249 261 220 220 234 231 253 304 273 246 283 200
233 259 252 306 214 176 185 171 167 178 180 183 185 183 187 190 197 207 206 203 196 201 206 212 207 208 207 212 212 216 224 224 217 219 227 231 232 242 249 258 211 218 237 260 266 225 289 251 167
238 250 260 271 181 57 189 180 180 173 185 187 186 189 192 195 198 204 207 208 203 206 209 213 214 210 212 221 221 221 221 216 215 220 226 234 237 239 268 229 255 224 236 236 234 268 292 183 172
230 230 225 207 234 123 118 16 238 248 207 194 197 192 195 196 198 204 207 207 210 209 212 214 217 218 223 222 221 220 219 218 216 221 228 232 243 227 247 242 246 207 230 238 239 256 266 190 166
239 231 221 230 237 226 160 232 201 227 244 187 195 198 201 201 201 203 206 209 211 214 215 216 217 218 222 225 219 218 219 209 204 210 215 224 224 220 229 247 223 227 232 231 248 254 259 220 196
241 234 206 215 225 137 284 161 248 190 223 219 202 200 205 204 203 204 207 212 213 215 216 218 218 218 222 224 225 223 225 222 215 219 217 214 225 226 227 238 226 227 230 234 248 250 258 235 210
228 256 235 208 160 234 219 201 245 203 200 217 210 206 206 206 207 209 212 213 214 215 217 217 216 218 220 223 228 229 229 228 218 214 215 219 221 224 221 227 228 236 227 230 239 244 258 258 225
198 154 246 245 221 232 203 218 220 210 202 203 205 209 207 205 207 209 209 209 213 214 217 218 217 218 219 223 227 230 230 227 216 216 220 224 225 226 217 226 226 233 230 236 231 245 258 246 224
203 205 204 211 212 216 202 219 239 228 209 200 210 212 207 205 204 208 212 214 214 217 217 218 218 219 220 222 226 228 228 220 214 215 222 227 227 227 227 237 235 233 230 229 231 237 243 244 231
219 206 198 196 209 308 214 259 291 241 210 215 211 207 205 205 205 207 213 216 215 216 219 220 219 220 222 223 224 224 225 219 215 208 215 226 225 228 230 233 228 230 227 224 226 228 231 239 236
209 180 204 226 217 241 255 230 221 212 219 196 207 207 204 201 204 207 210 214 216 219 222 221 224 221 223 224 224 223 223 221 218 210 215 223 221 223 224 231 231 228 228 232 235 232 232 237 233
200 210 232 183 196 226 242 248 197 235 212 208 203 201 200 192 199 203 208 216 218 216 218 223 223 224 223 222 223 223 222 222 220 218 217 221 226 227 230 237 234 236 235 236 239 240 235 240 237
220 215 196 220 243 245 227 237 242 198 223 195 199 203 202 189 192 202 210 210 211 218 219 224 225 225 226 224 221 223 223 222 221 223 223 221 226 230 233 236 237 238 238 239 244 245 239 237 239